Crosby, ND

5:18 PM CST on November 18, 2017 (GMT -0600)
Crosby

Weather History for KD50 - February, 2013

Change the Weather History Date:

Monday, February 18, 2013

  Actual Average (KISN) Record (KISN)
Temperature  
Mean Temperature 2 °F -  
Max Temperature 15 °F 28 °F 55 °F (1930)
Min Temperature -11 °F 7 °F -40 °F (1910)
Degree Days  
Heating Degree Days 63    
Moisture  
Dew Point 0 °F    
Average Humidity 81    
Maximum Humidity 93    
Minimum Humidity 72    
Precipitation  
Precipitation 0.16 in - - ()
Sea Level Pressure  
Sea Level Pressure 30.10 in    
Wind  
Wind Speed 18 mph (NNW)    
Max Wind Speed 24 mph    
Max Gust Speed 31 mph    
Visibility 9 miles    
Events Rain , Snow    
Averages and records for this station are not official NWS values.
T = Trace of Precipitation, MM = Missing Value Source: NWS Daily Summary

Daily Weather History Graph

Daily Weather History Graph

Search for Another Location

Airport or City:

Trip Planner

Search our weather history database for the weather conditions in past years. The results will help you decide how hot, cold, wet, or windy it might be!

Date:

Astronomy

Feb. 18, 2013 Rise Set
Actual Time 7:55 AM CST 6:19 PM CST
Civil Twilight 7:23 AM CST 6:51 PM CST
Nautical Twilight 6:46 AM CST 7:28 PM CST
Astronomical Twilight 6:09 AM CST 8:05 PM CST
Moon 11:51 AM CST 2:51 AM CST
Length of Visible Light 11h 28m
Length of Day
10h 23m
First Quarter, 58% of the Moon is Illuminated
Feb 18
First Quarter
Feb 25
Full
Mar 4
Last Quarter
Mar 11
New
Mar 19
First Quarter

Hourly Weather History & Observations

Time (CST) Temp. Windchill Dew Point Humidity Pressure Visibility Wind Dir Wind Speed Gust Speed Precip Events Conditions
12:15 AM 15.8 °F -2.7 °F 14.0 °F 93% 29.81 in 2.5 mi North 24.2 mph 31.1 mph 0.06 in Snow Light Snow
12:35 AM 15.8 °F -2.3 °F 14.0 °F 93% 29.82 in 3.0 mi NNW 23.0 mph - 0.10 in Snow Light Snow
12:55 AM 14.0 °F -3.9 °F 12.2 °F 93% 29.84 in 8.0 mi NNW 20.7 mph - 0.10 in Rain Light Freezing Rain
1:15 AM 14.0 °F -4.7 °F 10.4 °F 86% 29.85 in 9.0 mi NNW 23.0 mph 27.6 mph N/A Rain Light Freezing Rain
1:35 AM 14.0 °F -4.7 °F 10.4 °F 86% 29.86 in 9.0 mi NNW 23.0 mph - N/A Rain Light Freezing Rain
1:55 AM 14.0 °F -4.7 °F 8.6 °F 79% 29.87 in 8.0 mi North 23.0 mph 27.6 mph N/A Rain Light Freezing Rain
2:15 AM 14.0 °F -5.1 °F 8.6 °F 79% 29.88 in 10.0 mi North 24.2 mph - N/A Rain Light Freezing Rain
2:35 AM 14.0 °F -3.4 °F 8.6 °F 79% 29.90 in 10.0 mi North 19.6 mph - N/A Snow Light Snow
2:55 AM 14.0 °F -3.9 °F 8.6 °F 79% 29.91 in 8.0 mi NNW 20.7 mph - N/A Snow Light Snow
3:15 AM 14.0 °F -4.7 °F 8.6 °F 79% 29.92 in 5.0 mi NNW 23.0 mph - 0.01 in Snow Light Snow
3:35 AM 14.0 °F -3.0 °F 8.6 °F 79% 29.93 in 10.0 mi NNW 18.4 mph - 0.02 in Snow Light Snow
3:55 AM 12.2 °F -4.8 °F 8.6 °F 85% 29.94 in 10.0 mi NNW 17.3 mph - 0.02 in Snow Light Snow
4:15 AM 14.0 °F -4.3 °F 8.6 °F 79% 29.94 in 10.0 mi NNW 21.9 mph - N/A Snow Light Snow
4:35 AM 12.2 °F -5.8 °F 8.6 °F 85% 29.95 in 10.0 mi NNW 19.6 mph - N/A   Overcast
4:55 AM 12.2 °F -6.3 °F 8.6 °F 85% 29.96 in 10.0 mi North 20.7 mph - N/A Snow Light Snow
5:15 AM 12.2 °F -5.3 °F 8.6 °F 85% 29.97 in 10.0 mi NNW 18.4 mph - N/A Snow Light Snow
5:35 AM 10.4 °F -7.2 °F 6.8 °F 85% 29.98 in 10.0 mi North 17.3 mph - N/A Snow Light Snow
5:55 AM 10.4 °F -7.2 °F 6.8 °F 85% 29.99 in 10.0 mi North 17.3 mph - N/A Snow Light Snow
6:15 AM 10.4 °F -6.0 °F 6.8 °F 85% 30.00 in 10.0 mi North 15.0 mph - N/A Snow Light Snow
6:35 AM 10.4 °F -7.2 °F 6.8 °F 85% 30.01 in 9.0 mi North 17.3 mph - N/A Snow Light Snow
6:55 AM 10.4 °F -7.7 °F 5.0 °F 79% 30.02 in 7.0 mi North 18.4 mph - 0.01 in Snow Light Snow
7:15 AM 10.4 °F -4.8 °F 5.0 °F 79% 30.02 in 10.0 mi North 12.7 mph - N/A Snow Light Snow
7:35 AM 8.6 °F -10.0 °F 5.0 °F 85% 30.03 in 10.0 mi North 18.4 mph 24.2 mph N/A Snow Light Snow
7:55 AM 8.6 °F -8.9 °F 5.0 °F 85% 30.04 in 10.0 mi North 16.1 mph - N/A   Overcast
8:15 AM 8.6 °F -8.9 °F 5.0 °F 85% 30.05 in 10.0 mi North 16.1 mph - N/A   Overcast
8:35 AM 8.6 °F -8.9 °F 5.0 °F 85% 30.06 in 10.0 mi North 16.1 mph - N/A Snow Light Snow
8:55 AM 8.6 °F -9.5 °F 5.0 °F 85% 30.06 in 8.0 mi North 17.3 mph - N/A Snow Light Snow
9:15 AM 8.6 °F -10.5 °F 5.0 °F 85% 30.07 in 5.0 mi North 19.6 mph - N/A Snow Light Snow
9:35 AM 8.6 °F -8.9 °F 5.0 °F 85% 30.08 in 5.0 mi North 16.1 mph 23.0 mph 0.01 in Snow Light Snow
9:55 AM 8.6 °F -8.9 °F 5.0 °F 85% 30.09 in 4.0 mi North 16.1 mph - 0.02 in Snow Light Snow
10:15 AM 8.6 °F -10.0 °F 5.0 °F 85% 30.09 in 2.0 mi North 18.4 mph - 0.01 in Snow Light Snow
10:35 AM 8.6 °F -10.0 °F 3.2 °F 79% 30.10 in 2.5 mi North 18.4 mph - 0.01 in Rain Light Freezing Rain
10:55 AM 8.6 °F -10.5 °F 3.2 °F 79% 30.10 in 2.5 mi North 19.6 mph 24.2 mph 0.01 in Snow Light Snow
11:15 AM 8.6 °F -10.5 °F 3.2 °F 79% 30.11 in 5.0 mi North 19.6 mph - N/A Rain Light Freezing Rain
11:35 AM 6.8 °F -12.4 °F 1.4 °F 79% 30.12 in 4.0 mi North 18.4 mph - N/A   Haze
11:55 AM 6.8 °F -11.8 °F 1.4 °F 79% 30.13 in 7.0 mi North 17.3 mph - N/A Rain Light Freezing Rain
12:15 PM 6.8 °F -13.4 °F 1.4 °F 79% 30.13 in 9.0 mi North 20.7 mph - N/A   Overcast
12:35 PM 6.8 °F -12.9 °F 1.4 °F 79% 30.14 in 10.0 mi North 19.6 mph - N/A   Overcast
12:55 PM 6.8 °F -11.8 °F -0.4 °F 72% 30.14 in 10.0 mi North 17.3 mph - N/A   Overcast
1:15 PM 6.8 °F -12.4 °F -0.4 °F 72% 30.15 in 9.0 mi North 18.4 mph - N/A   Overcast
1:35 PM 5.0 °F -14.7 °F -0.4 °F 78% 30.15 in 10.0 mi North 18.4 mph - N/A   Overcast
1:55 PM 5.0 °F -14.7 °F -0.4 °F 78% 30.15 in 10.0 mi North 18.4 mph - N/A   Overcast
2:15 PM 5.0 °F -11.6 °F -0.4 °F 78% 30.16 in 10.0 mi North 12.7 mph - N/A   Overcast
2:35 PM 5.0 °F -13.6 °F -0.4 °F 78% 30.16 in 10.0 mi North 16.1 mph - N/A   Overcast
2:55 PM 5.0 °F -14.2 °F -0.4 °F 78% 30.16 in 10.0 mi North 17.3 mph - N/A   Scattered Clouds
3:15 PM 5.0 °F -13.6 °F -0.4 °F 78% 30.17 in 10.0 mi North 16.1 mph - N/A   Partly Cloudy
3:35 PM 5.0 °F -13.6 °F -0.4 °F 78% 30.18 in 10.0 mi North 16.1 mph - N/A   Clear
3:55 PM 5.0 °F -13.6 °F -0.4 °F 78% 30.19 in 10.0 mi North 16.1 mph - N/A   Partly Cloudy
4:15 PM 5.0 °F -13.0 °F -0.4 °F 78% 30.19 in 10.0 mi North 15.0 mph - N/A   Partly Cloudy
4:35 PM 5.0 °F -12.3 °F -0.4 °F 78% 30.19 in 10.0 mi North 13.8 mph - N/A   Clear
4:55 PM 3.2 °F -13.9 °F -2.2 °F 78% 30.19 in 10.0 mi North 12.7 mph - N/A   Clear
5:35 PM 1.4 °F -14.5 °F -2.2 °F 85% 30.21 in 10.0 mi North 10.4 mph - N/A   Clear
5:55 PM -0.4 °F -15.7 °F -4.0 °F 85% 30.22 in 10.0 mi NNW 9.2 mph - N/A   Clear
6:15 PM -0.4 °F -13.4 °F -5.8 °F 78% 30.22 in 10.0 mi NNW 6.9 mph - N/A   Clear
6:35 PM -0.4 °F -13.4 °F -7.6 °F 72% 30.23 in 10.0 mi NNW 6.9 mph - N/A   Clear
6:55 PM -2.2 °F -14.2 °F -7.6 °F 78% 30.24 in 10.0 mi NNW 5.8 mph - N/A   Clear
7:15 PM -4.0 °F -19.0 °F -9.4 °F 78% 30.25 in 10.0 mi NNW 8.1 mph - N/A   Clear
7:35 PM -4.0 °F -17.8 °F -9.4 °F 78% 30.25 in 10.0 mi NNW 6.9 mph - N/A   Clear
7:55 PM -5.8 °F -19.9 °F -11.2 °F 77% 30.25 in 10.0 mi NW 6.9 mph - N/A   Clear
8:15 PM -7.6 °F -22.1 °F -11.2 °F 84% 30.25 in 10.0 mi NW 6.9 mph - N/A   Clear
8:35 PM -7.6 °F -24.6 °F -11.2 °F 84% 30.26 in 10.0 mi NW 9.2 mph - N/A   Clear
8:55 PM -9.4 °F -26.8 °F -13.0 °F 84% 30.26 in 10.0 mi NW 9.2 mph - N/A   Clear
9:15 PM -9.4 °F -26.8 °F -13.0 °F 84% 30.26 in 10.0 mi NW 9.2 mph - N/A   Clear
9:35 PM -9.4 °F -25.6 °F -13.0 °F 84% 30.27 in 10.0 mi NNW 8.1 mph - N/A   Clear
9:55 PM -9.4 °F -22.7 °F -14.8 °F 77% 30.28 in 10.0 mi WNW 5.8 mph - N/A   Clear
10:15 PM -11.2 °F -20.6 °F -16.6 °F 77% 30.28 in 10.0 mi SSW 3.5 mph - N/A   Clear
10:35 PM -11.2 °F - -14.8 °F 84% 30.29 in 10.0 mi Calm Calm - N/A   Clear
10:55 PM -11.2 °F -20.6 °F -14.8 °F 84% 30.29 in 10.0 mi WNW 3.5 mph - N/A   Clear
11:15 PM -11.2 °F - -16.6 °F 77% 30.30 in 10.0 mi Calm Calm - N/A   Clear
11:35 PM -11.2 °F -20.6 °F -14.8 °F 84% 30.30 in 10.0 mi North 3.5 mph - N/A   Clear
11:55 PM -11.2 °F -23.0 °F -14.8 °F 84% 30.30 in 10.0 mi North 4.6 mph - N/A   Clear